Back to catalog

GLOBALSTAR M027

AliveCommunicationsMEO
NORAD 25884·PAYLOAD·🇺🇸 United States

Launched Aug 17, 1999 from Cape Canaveral Space Force Station

Loading…

Next Passes (next 24 hours)

TLE

FreshSource: Space-Track

Epoch: Sep 14, 2026, 03:27 UTC

1 25884U 99043B   26257.14386196 -.00000091  00000-0 -10377-2 0  9994
2 25884  52.0192 167.1734 0021759   5.8887 354.2159 11.04374964191398

Track GLOBALSTAR M027 in real time with AllMySat

Download on the App Store